Meteo orario Abasolo

Oggi, 6 Marzo, Sabato

Tempo Temperatura Precipitazioni Vento Pressione Umidità
00:00 +14°C° 0 mm 1 m/s 619 mm Hg 46%
01:00 +13°C° 0 mm 1 m/s 618 mm Hg 61%
02:00 +12°C° 0 mm 1 m/s 618 mm Hg 76%
03:00 +12°C° 0 mm 1 m/s 618 mm Hg 82%
04:00 +11°C° 0 mm 1 m/s 619 mm Hg 88%
05:00 +11°C° 0 mm 1 m/s 619 mm Hg 94%
06:00 +13°C° 0 mm 1 m/s 620 mm Hg 83%
07:00 +16°C° 0 mm 1 m/s 621 mm Hg 73%
08:00 +18°C° 0 mm 2 m/s 623 mm Hg 62%
09:00 +23°C° 0 mm 2 m/s 624 mm Hg 50%
10:00 +27°C° 0 mm 2 m/s 625 mm Hg 37%
11:00 +31°C° 0 mm 2 m/s 626 mm Hg 25%
12:00 +32°C° 0 mm 2 m/s 625 mm Hg 21%
13:00 +34°C° 0 mm 1 m/s 625 mm Hg 17%
14:00 +36°C° 0 mm 1 m/s 624 mm Hg 13%
15:00 +35°C° 0 mm 2 m/s 623 mm Hg 14%
16:00 +34°C° 0 mm 2 m/s 623 mm Hg 14%
17:00 +31°C° 0 mm 3 m/s 622 mm Hg 15%
18:00 +27°C° 0 mm 3 m/s 622 mm Hg 24%
19:00 +22°C° 0 mm 3 m/s 622 mm Hg 32%
20:00 +19°C° 0 mm 3 m/s 622 mm Hg 41%
21:00 +16°C° 0 mm 2 m/s 621 mm Hg 50%
22:00 +14°C° 0 mm 2 m/s 621 mm Hg 59%
23:00 +12°C° 0 mm 1 m/s 621 mm Hg 68%

Domani, 7 Marzo, Domenica

Tempo Temperatura Precipitazioni Vento Pressione Umidità
00:00 +11°C° 0 mm 1 m/s 620 mm Hg 73%
01:00 +10°C° 0 mm 1 m/s 620 mm Hg 78%
02:00 +9°C° 0 mm 1 m/s 619 mm Hg 83%
03:00 +8°C° 0 mm 1 m/s 619 mm Hg 85%
04:00 +7°C° 0 mm 1 m/s 619 mm Hg 88%
05:00 +7°C° 0 mm 1 m/s 619 mm Hg 90%
06:00 +10°C° 0 mm 1 m/s 620 mm Hg 78%
07:00 +12°C° 0 mm 1 m/s 622 mm Hg 67%
08:00 +15°C° 0 mm 1 m/s 623 mm Hg 55%
09:00 +22°C° 0 mm 1 m/s 624 mm Hg 43%
10:00 +27°C° 0 mm 1 m/s 626 mm Hg 32%
11:00 +31°C° 0 mm 0 m/s 627 mm Hg 20%
12:00 +33°C° 0 mm 1 m/s 627 mm Hg 17%
13:00 +35°C° 0 mm 2 m/s 626 mm Hg 14%
14:00 +35°C° 0 mm 2 m/s 625 mm Hg 10%
15:00 +34°C° 0 mm 2 m/s 625 mm Hg 11%
16:00 +33°C° 0 mm 3 m/s 624 mm Hg 11%
17:00 +31°C° 0 mm 3 m/s 624 mm Hg 12%
18:00 +27°C° 0 mm 2 m/s 624 mm Hg 17%
19:00 +23°C° 0 mm 2 m/s 623 mm Hg 22%
20:00 +19°C° 0 mm 1 m/s 623 mm Hg 27%
21:00 +16°C° 0 mm 1 m/s 623 mm Hg 40%
22:00 +15°C° 0 mm 1 m/s 623 mm Hg 53%
23:00 +13°C° 0 mm 1 m/s 623 mm Hg 65%

Dopodomani, 8 Marzo, Lunedi

Tempo Temperatura Precipitazioni Vento Pressione Umidità
00:00 +12°C° 0 mm 1 m/s 622 mm Hg 73%
01:00 +11°C° 0 mm 1 m/s 622 mm Hg 81%
02:00 +9°C° 0 mm 1 m/s 621 mm Hg 89%
03:00 +9°C° 0 mm 1 m/s 621 mm Hg 91%
04:00 +8°C° 0 mm 1 m/s 621 mm Hg 93%
05:00 +8°C° 0 mm 1 m/s 621 mm Hg 95%
06:00 +10°C° 0 mm 1 m/s 622 mm Hg 84%
07:00 +13°C° 0 mm 1 m/s 623 mm Hg 73%
08:00 +15°C° 0 mm 1 m/s 625 mm Hg 63%
09:00 +20°C° 0 mm 2 m/s 626 mm Hg 48%
10:00 +25°C° 0 mm 2 m/s 627 mm Hg 34%
11:00 +29°C° 0 mm 2 m/s 628 mm Hg 20%
12:00 +31°C° 0 mm 2 m/s 627 mm Hg 17%
13:00 +32°C° 0 mm 2 m/s 627 mm Hg 13%
14:00 +35°C° 0 mm 2 m/s 626 mm Hg 10%
15:00 +34°C° 0 mm 3 m/s 626 mm Hg 10%
16:00 +33°C° 0 mm 3 m/s 625 mm Hg 10%
17:00 +31°C° 0 mm 3 m/s 625 mm Hg 10%
18:00 +26°C° 0 mm 3 m/s 624 mm Hg 19%
19:00 +21°C° 0 mm 2 m/s 624 mm Hg 29%
20:00 +17°C° 0 mm 2 m/s 623 mm Hg 38%
21:00 +15°C° 0 mm 2 m/s 623 mm Hg 48%
22:00 +14°C° 0 mm 2 m/s 623 mm Hg 58%
23:00 +12°C° 0 mm 2 m/s 622 mm Hg 69%

9 Marzo, Martedi

Tempo Temperatura Precipitazioni Vento Pressione Umidità
00:00 +11°C° 0 mm 1 m/s 622 mm Hg 76%
01:00 +10°C° 0 mm 1 m/s 621 mm Hg 84%
02:00 +9°C° 0 mm 1 m/s 621 mm Hg 92%
03:00 +8°C° 0 mm 1 m/s 621 mm Hg 93%
04:00 +8°C° 0 mm 1 m/s 621 mm Hg 94%
05:00 +7°C° 0 mm 1 m/s 621 mm Hg 95%
06:00 +10°C° 0 mm 1 m/s 622 mm Hg 84%
07:00 +12°C° 0 mm 1 m/s 623 mm Hg 73%
08:00 +15°C° 0 mm 1 m/s 624 mm Hg 62%
09:00 +21°C° 0 mm 1 m/s 625 mm Hg 48%
10:00 +26°C° 0 mm 1 m/s 626 mm Hg 33%
11:00 +31°C° 0 mm 1 m/s 628 mm Hg 19%
12:00 +32°C° 0 mm 1 m/s 627 mm Hg 15%
13:00 +34°C° 0 mm 2 m/s 626 mm Hg 12%
14:00 +36°C° 0 mm 2 m/s 626 mm Hg 9%
15:00 +35°C° 0 mm 2 m/s 625 mm Hg 10%
16:00 +32°C° 0 mm 2 m/s 625 mm Hg 10%
17:00 +31°C° 0 mm 2 m/s 624 mm Hg 10%
18:00 +27°C° 0 mm 2 m/s 623 mm Hg 16%
19:00 +23°C° 0 mm 1 m/s 622 mm Hg 23%
20:00 +18°C° 0 mm 1 m/s 622 mm Hg 29%
21:00 +16°C° 0 mm 1 m/s 622 mm Hg 35%
22:00 +15°C° 0 mm 1 m/s 621 mm Hg 41%
23:00 +14°C° 0 mm 1 m/s 621 mm Hg 46%

10 Marzo, Mercoledi

Tempo Temperatura Precipitazioni Vento Pressione Umidità
00:00 +12°C° 0 mm 1 m/s 621 mm Hg 54%
01:00 +11°C° 0 mm 1 m/s 620 mm Hg 62%
02:00 +9°C° 0 mm 0 m/s 619 mm Hg 69%
03:00 +9°C° 0 mm 0 m/s 619 mm Hg 73%
04:00 +9°C° 0 mm 1 m/s 619 mm Hg 76%
05:00 +9°C° 0 mm 1 m/s 619 mm Hg 80%
06:00 +12°C° 0 mm 1 m/s 621 mm Hg 69%
07:00 +15°C° 0 mm 1 m/s 622 mm Hg 59%
08:00 +19°C° 0 mm 1 m/s 623 mm Hg 49%
09:00 +24°C° 0 mm 1 m/s 625 mm Hg 38%
10:00 +30°C° 0 mm 1 m/s 626 mm Hg 27%
11:00 +35°C° 0 mm 1 m/s 627 mm Hg 15%
12:00 +35°C° 0 mm 1 m/s 626 mm Hg 13%
13:00 +36°C° 0 mm 1 m/s 625 mm Hg 11%
14:00 +36°C° 0 mm 1 m/s 624 mm Hg 9%
15:00 +35°C° 0 mm 1 m/s 624 mm Hg 10%
16:00 +33°C° 0 mm 1 m/s 623 mm Hg 10%
17:00 +32°C° 0 mm 1 m/s 623 mm Hg 11%
18:00 +28°C° 0 mm 1 m/s 622 mm Hg 15%
19:00 +24°C° 0 mm 1 m/s 621 mm Hg 20%
20:00 +19°C° 0 mm 1 m/s 621 mm Hg 25%
21:00 +18°C° 0 mm 1 m/s 621 mm Hg 30%
22:00 +16°C° 0 mm 1 m/s 621 mm Hg 35%
23:00 +14°C° 0 mm 1 m/s 621 mm Hg 40%

11 Marzo, Giovedi

Tempo Temperatura Precipitazioni Vento Pressione Umidità
00:00 +13°C° 0 mm 1 m/s 620 mm Hg 46%
01:00 +11°C° 0 mm 0 m/s 620 mm Hg 52%
02:00 +10°C° 0 mm 0 m/s 619 mm Hg 58%
03:00 +10°C° 0 mm 0 m/s 619 mm Hg 62%
04:00 +9°C° 0 mm 0 m/s 619 mm Hg 66%
05:00 +9°C° 0 mm 0 m/s 619 mm Hg 70%
06:00 +12°C° 0 mm 0 m/s 620 mm Hg 60%
07:00 +18°C° 0 mm 1 m/s 622 mm Hg 49%
08:00 +21°C° 0 mm 1 m/s 623 mm Hg 39%
09:00 +25°C° 0 mm 1 m/s 624 mm Hg 31%
10:00 +29°C° 0 mm 1 m/s 625 mm Hg 24%
11:00 +34°C° 0 mm 1 m/s 626 mm Hg 16%
12:00 +34°C° 0 mm 1 m/s 626 mm Hg 14%
13:00 +35°C° 0 mm 1 m/s 625 mm Hg 12%
14:00 +36°C° 0 mm 1 m/s 624 mm Hg 10%
15:00 +34°C° 0 mm 1 m/s 623 mm Hg 11%
16:00 +33°C° 0 mm 1 m/s 623 mm Hg 12%
17:00 +32°C° 0 mm 1 m/s 622 mm Hg 12%
18:00 +28°C° 0 mm 1 m/s 622 mm Hg 17%
19:00 +25°C° 0 mm 1 m/s 622 mm Hg 22%
20:00 +21°C° 0 mm 1 m/s 621 mm Hg 27%
21:00 +20°C° 0 mm 1 m/s 621 mm Hg 32%
22:00 +18°C° 0 mm 1 m/s 621 mm Hg 37%
23:00 +14°C° 0 mm 0 m/s 621 mm Hg 41%
Mostrare altro

Abbiamo bisogno del tuo consenso

Meteoprog e i nostri fornitori di servizi possono memorizzare e accedere a dati personali come cookie, identificatori di dispositivi o altre tecnologie simili sul tuo dispositivo e possono elaborare tali dati per personalizzare i contenuti e gli annunci, nonché fornire funzionalità dei social media e analizzarne il traffico.

  • Archiviare e/o accedere alle informazioni sul tuo dispositivo

    Cookie, identificatori di dispositivi o altre informazioni possono essere memorizzati o resi accessibili sul tuo dispositivo per le finalità sopra indicate.

  • Annunci e contenuti personalizzati, misurazione di annunci e contenuti, approfondimenti sul pubblico e sviluppo di prodotti

    Gli annunci e i contenuti possono essere personalizzati in base a un profilo. È possibile aggiungere più dati per personalizzare meglio annunci e contenuti. È possibile misurare il rendimento degli annunci e dei contenuti. È possibile ricavare informazioni sul pubblico che ha visto gli annunci e i contenuti. Tali dati possono essere utilizzati per sviluppare o migliorare l'esperienza, i sistemi e il software dell'utente.

Cliccando su “Accetto”, acconsenti all'uso di cookie, identificatori di dispositivo, web beacon o altre tecnologie simili. Puoi modificare le impostazioni nel browser del tuo dispositivo.

Per determinati scopi, è possibile fare affidamento su interessi legali, piuttosto che sul consenso. Puoi approfondire questo argomento consultando la nostra Informativa sulla privacy e sui cookie.